Location: Arroyo Retuerta
(40.5469°N, 4.3534°W)
Time: 12:19:28
(UTC+00:00)

Resurs 01 Rocket - Pass Details

Date: 01 June 2020
Orbit: 633 x 645 km, 98.0° (Epoch: 05 July)

Event Time Altitude Azimuth Distance (km) Brightness Sun altitude
Exits shadow 20:28:14 - 150° (SSE) 2,179 3.8 -8.0°
Reaches altitude 10° 20:28:35 10° 149° (SSE) 2,037 3.6 -8.1°
Maximum altitude 20:32:54 52° 73° (ENE) 807 1.9 -8.7°
Drops below altitude 10° 20:37:14 10° 358° (N) 2,049 4.9 -9.3°
Sets 20:39:29 0° 353° (N) 2,962 5.8 -9.7°
